| time (UTC) | temp F | wind direction | speed knots | gust knots | rain 1hr in | rain 24hr in | rain mn in | humidity % | barometer mb |
| 20260507201559 | 62 | 176 | 2.6 | 9.6 | 0.00 | 0.09 | 0.03 | 55 | 1007.9 |
| 20260507201047 | 62 | 93 | 2.6 | 8.7 | 0.00 | 0.09 | 0.03 | 57 | 1007.9 |
| 20260507200548 | 62 | 221 | 1.7 | 7.8 | 0.00 | 0.09 | 0.03 | 56 | 1007.8 |
| 20260507200057 | 62 | 360 | 2.6 | 8.7 | 0.00 | 0.09 | 0.03 | 54 | 1007.9 |
| 20260507195545 | 63 | 23 | 1.7 | 10.4 | 0.00 | 0.09 | 0.03 | 52 | 1007.9 |
| 20260507195045 | 64 | 25 | 3.5 | 6.1 | 0.00 | 0.09 | 0.03 | 46 | 1008.0 |
| 20260507194545 | 64 | 8 | 0.9 | 5.2 | 0.00 | 0.09 | 0.03 | 47 | 1007.9 |
| 20260507194049 | 63 | 257 | 1.7 | 6.1 | 0.00 | 0.09 | 0.03 | 46 | 1008.2 |
| 20260507193545 | 63 | 134 | 2.6 | 7.0 | 0.00 | 0.09 | 0.03 | 46 | 1008.2 |
| 20260507193048 | 64 | 195 | 1.7 | 7.0 | 0.00 | 0.09 | 0.03 | 46 | 1008.2 |
| 20260507192545 | 64 | 188 | 2.6 | 6.1 | 0.00 | 0.09 | 0.03 | 44 | 1008.2 |
| 20260507192042 | 65 | 232 | 2.6 | 6.1 | 0.00 | 0.09 | 0.03 | 45 | 1008.2 |
| 20260507191542 | 65 | 79 | 0.9 | 5.2 | 0.00 | 0.09 | 0.03 | 45 | 1008.3 |
| 20260507191044 | 65 | 75 | 2.6 | 5.2 | 0.00 | 0.09 | 0.03 | 42 | 1008.4 |
| 20260507190540 | 64 | 19 | 0.9 | 2.6 | 0.00 | 0.09 | 0.03 | 45 | 1008.5 |
| 20260507190040 | 63 | 54 | 0.0 | 2.6 | 0.00 | 0.09 | 0.03 | 45 | 1008.6 |
| 20260507185538 | 63 | 27 | 0.9 | 2.6 | 0.00 | 0.09 | 0.03 | 45 | 1008.7 |
| 20260507185038 | 62 | 221 | 0.0 | 4.3 | 0.00 | 0.09 | 0.03 | 48 | 1008.7 |
| 20260507184538 | 62 | 252 | 0.9 | 5.2 | 0.00 | 0.09 | 0.03 | 45 | 1008.8 |
| 20260507184038 | 63 | 209 | 2.6 | 5.2 | 0.00 | 0.09 | 0.03 | 45 | 1008.8 |
| 20260507183540 | 64 | 115 | 0.0 | 5.2 | 0.00 | 0.09 | 0.03 | 45 | 1008.7 |
| 20260507183040 | 63 | 345 | 1.7 | 5.2 | 0.00 | 0.09 | 0.03 | 42 | 1008.8 |
| 20260507182537 | 64 | 57 | 2.6 | 7.0 | 0.00 | 0.09 | 0.03 | 43 | 1008.8 |
| 20260507182036 | 64 | 158 | 2.6 | 7.0 | 0.00 | 0.09 | 0.03 | 45 | 1008.9 |
| 20260507181537 | 64 | 178 | 3.5 | 7.0 | 0.00 | 0.09 | 0.03 | 45 | 1008.9 |
| 20260507181036 | 65 | 155 | 2.6 | 5.2 | 0.00 | 0.09 | 0.03 | 40 | 1008.9 |
| 20260507180535 | 64 | 56 | 0.9 | 5.2 | 0.00 | 0.09 | 0.03 | 45 | 1009.0 |
| 20260507180035 | 64 | 119 | 2.6 | 5.2 | 0.00 | 0.09 | 0.03 | 42 | 1009.1 |
| 20260507175533 | 64 | 207 | 0.9 | 6.1 | 0.00 | 0.09 | 0.03 | 44 | 1009.3 |
| 20260507175030 | 63 | 47 | 2.6 | 5.2 | 0.00 | 0.09 | 0.03 | 43 | 1009.2 |
| 20260507174529 | 63 | 65 | 1.7 | 9.6 | 0.00 | 0.09 | 0.03 | 41 | 1009.4 |
| 20260507174029 | 63 | 43 | 1.7 | 7.0 | 0.00 | 0.09 | 0.03 | 45 | 1009.4 |
| 20260507173528 | 63 | 85 | 3.5 | 7.0 | 0.00 | 0.09 | 0.03 | 44 | 1009.6 |
| 20260507173026 | 63 | 12 | 1.7 | 7.0 | 0.00 | 0.09 | 0.03 | 43 | 1009.7 |
| 20260507172527 | 62 | 35 | 2.6 | 11.3 | 0.00 | 0.09 | 0.03 | 44 | 1009.8 |
| 20260507172026 | 62 | 89 | 3.5 | 11.3 | 0.00 | 0.09 | 0.03 | 41 | 1009.7 |
| 20260507171525 | 63 | 27 | 2.6 | 7.0 | 0.00 | 0.09 | 0.03 | 48 | 1009.8 |
| 20260507171025 | 62 | 79 | 1.7 | 9.6 | 0.00 | 0.09 | 0.03 | 46 | 1009.9 |
| 20260507170523 | 62 | 109 | 3.5 | 9.6 | 0.00 | 0.09 | 0.03 | 44 | 1010.0 |
| 20260507170022 | 62 | 91 | 2.6 | 7.8 | 0.00 | 0.09 | 0.03 | 44 | 1010.2 |
| 20260507165521 | 62 | 93 | 1.7 | 7.8 | 0.00 | 0.09 | 0.03 | 44 | 1010.3 |
| 20260507165020 | 61 | 358 | 1.7 | 7.0 | 0.00 | 0.09 | 0.03 | 45 | 1010.3 |
| 20260507164518 | 61 | 355 | 2.6 | 7.0 | 0.00 | 0.09 | 0.03 | 44 | 1010.5 |
| 20260507164018 | 60 | 15 | 1.7 | 4.3 | 0.00 | 0.09 | 0.03 | 46 | 1010.5 |
| 20260507163516 | 60 | 326 | 2.6 | 4.3 | 0.00 | 0.09 | 0.03 | 47 | 1010.5 |
| 20260507163016 | 60 | 68 | 2.6 | 5.2 | 0.00 | 0.09 | 0.03 | 50 | 1010.7 |
| 20260507162516 | 60 | 143 | 2.6 | 6.1 | 0.00 | 0.09 | 0.03 | 51 | 1010.7 |
| 20260507162020 | 59 | 49 | 1.7 | 6.1 | 0.00 | 0.09 | 0.03 | 48 | 1010.8 |
| 20260507161518 | 60 | 184 | 2.6 | 7.8 | 0.00 | 0.09 | 0.03 | 47 | 1010.8 |
| 20260507161016 | 60 | 133 | 3.5 | 7.8 | 0.00 | 0.09 | 0.03 | 47 | 1011.0 |
| 20260507160518 | 60 | 23 | 0.9 | 6.1 | 0.00 | 0.09 | 0.03 | 49 | 1011.1 |
| 20260507160013 | 59 | 162 | 3.5 | 6.1 | 0.00 | 0.09 | 0.03 | 48 | 1011.1 |
| 20260507155511 | 58 | 115 | 1.7 | 7.0 | 0.00 | 0.09 | 0.03 | 49 | 1011.0 |
| 20260507155014 | 58 | 121 | 3.5 | 8.7 | 0.00 | 0.09 | 0.03 | 49 | 1011.3 |
| 20260507154511 | 57 | 55 | 2.6 | 8.7 | 0.00 | 0.09 | 0.03 | 47 | 1011.3 |
| 20260507154010 | 57 | 162 | 4.3 | 8.7 | 0.00 | 0.09 | 0.03 | 48 | 1011.4 |
| 20260507153508 | 58 | 37 | 2.6 | 7.0 | 0.00 | 0.09 | 0.03 | 48 | 1011.3 |
| 20260507153007 | 57 | 151 | 0.9 | 9.6 | 0.00 | 0.09 | 0.03 | 53 | 1011.5 |
| 20260507152507 | 57 | 134 | 3.5 | 9.6 | 0.00 | 0.09 | 0.03 | 50 | 1011.5 |
| 20260507152007 | 56 | 108 | 1.7 | 6.1 | 0.00 | 0.09 | 0.03 | 51 | 1011.4 |
| 20260507151508 | 56 | 98 | 2.6 | 7.0 | 0.00 | 0.09 | 0.03 | 51 | 1011.6 |
| 20260507151007 | 56 | 84 | 2.6 | 9.6 | 0.00 | 0.09 | 0.03 | 52 | 1011.8 |
| 20260507150507 | 55 | 76 | 1.7 | 9.6 | 0.00 | 0.09 | 0.03 | 51 | 1011.8 |
| 20260507150007 | 55 | 110 | 2.6 | 9.6 | 0.00 | 0.11 | 0.03 | 53 | 1011.8 |
| 20260507145507 | 55 | 98 | 3.5 | 7.8 | 0.00 | 0.11 | 0.03 | 49 | 1011.9 |
| 20260507145006 | 55 | 78 | 2.6 | 7.8 | 0.00 | 0.11 | 0.03 | 49 | 1012.0 |
| 20260507144504 | 55 | 18 | 1.7 | 6.1 | 0.00 | 0.11 | 0.03 | 50 | 1012.1 |
| 20260507144004 | 55 | 41 | 1.7 | 6.1 | 0.00 | 0.11 | 0.03 | 52 | 1012.2 |
| 20260507143504 | 55 | 59 | 1.7 | 5.2 | 0.00 | 0.11 | 0.03 | 51 | 1012.2 |
| 20260507143005 | 55 | 134 | 1.7 | 6.1 | 0.00 | 0.11 | 0.03 | 51 | 1012.2 |
| 20260507142503 | 55 | 110 | 0.9 | 5.2 | 0.00 | 0.11 | 0.03 | 54 | 1012.2 |
| 20260507142003 | 55 | 79 | 0.9 | 7.0 | 0.00 | 0.11 | 0.03 | 59 | 1012.2 |
| 20260507141503 | 54 | 155 | 2.6 | 7.8 | 0.00 | 0.11 | 0.03 | 54 | 1012.1 |
| 20260507141007 | 53 | 127 | 5.2 | 7.8 | 0.00 | 0.11 | 0.03 | 54 | 1012.2 |
| 20260507140501 | 53 | 83 | 1.7 | 8.7 | 0.00 | 0.11 | 0.03 | 56 | 1012.3 |
| 20260507140002 | 53 | 96 | 3.5 | 7.0 | 0.00 | 0.15 | 0.03 | 56 | 1012.3 |
| 20260507135502 | 53 | 65 | 0.9 | 5.2 | 0.00 | 0.15 | 0.03 | 58 | 1012.5 |
| 20260507135104 | 53 | 94 | 1.7 | 5.2 | 0.00 | 0.15 | 0.03 | 58 | 1012.5 |
| 20260507134613 | 53 | 115 | 1.7 | 5.2 | 0.00 | 0.15 | 0.03 | 57 | 1012.6 |
| 20260507134059 | 53 | 100 | 1.7 | 5.2 | 0.00 | 0.15 | 0.03 | 57 | 1012.7 |
| 20260507133600 | 53 | 91 | 1.7 | 5.2 | 0.00 | 0.15 | 0.03 | 58 | 1012.9 |
| 20260507133100 | 53 | 86 | 2.6 | 6.1 | 0.00 | 0.15 | 0.03 | 57 | 1012.9 |
| 20260507132559 | 53 | 82 | 3.5 | 6.1 | 0.00 | 0.15 | 0.03 | 58 | 1012.8 |
| 20260507132057 | 53 | 34 | 1.7 | 5.2 | 0.00 | 0.15 | 0.03 | 59 | 1012.8 |
| 20260507131557 | 53 | 35 | 0.9 | 7.0 | 0.00 | 0.15 | 0.03 | 62 | 1012.8 |
| 20260507131056 | 52 | 125 | 1.7 | 7.0 | 0.00 | 0.15 | 0.03 | 62 | 1012.7 |
| 20260507130558 | 52 | 101 | 2.6 | 9.6 | 0.00 | 0.15 | 0.03 | 62 | 1012.6 |
| 20260507130108 | 52 | 95 | 2.6 | 9.6 | 0.00 | 0.27 | 0.03 | 63 | 1012.6 |
| 20260507125555 | 53 | 103 | 3.5 | 8.7 | 0.00 | 0.27 | 0.03 | 62 | 1012.6 |
| 20260507125054 | 53 | 108 | 2.6 | 7.8 | 0.00 | 0.27 | 0.03 | 62 | 1012.7 |
| 20260507124618 | 52 | 82 | 1.7 | 5.2 | 0.00 | 0.27 | 0.03 | 63 | 1012.8 |
| 20260507124056 | 52 | 65 | 1.7 | 3.5 | 0.00 | 0.27 | 0.03 | 64 | 1012.8 |
| 20260507123553 | 52 | 137 | 1.7 | 3.5 | 0.00 | 0.27 | 0.03 | 64 | 1012.7 |
| 20260507123106 | 52 | 93 | 0.9 | 2.6 | 0.00 | 0.27 | 0.03 | 65 | 1012.8 |
| 20260507122551 | 52 | 94 | 0.9 | 2.6 | 0.00 | 0.27 | 0.03 | 65 | 1012.8 |
| 20260507122051 | 52 | 101 | 0.0 | 2.6 | 0.00 | 0.27 | 0.03 | 67 | 1012.7 |
| 20260507121558 | 52 | 112 | 0.0 | 4.3 | 0.00 | 0.27 | 0.03 | 68 | 1012.5 |
| 20260507121050 | 52 | 77 | 0.9 | 4.3 | 0.00 | 0.27 | 0.03 | 66 | 1012.5 |
| 20260507120549 | 52 | 97 | 1.7 | 4.3 | 0.00 | 0.27 | 0.03 | 67 | 1012.5 |
| 20260507120049 | 52 | 94 | 1.7 | 5.2 | 0.00 | 0.34 | 0.03 | 67 | 1012.5 |
| 20260507115549 | 52 | 98 | 2.6 | 5.2 | 0.00 | 0.34 | 0.03 | 68 | 1012.5 |
| 20260507115049 | 52 | 123 | 1.7 | 3.5 | 0.00 | 0.34 | 0.03 | 68 | 1012.6 |
| 20260507114551 | 52 | 82 | 0.0 | 2.6 | 0.00 | 0.34 | 0.03 | 71 | 1012.5 |
| 20260507114046 | 52 | 97 | 0.0 | 3.5 | 0.00 | 0.34 | 0.03 | 70 | 1012.4 |
| 20260507113547 | 52 | 89 | 0.9 | 3.5 | 0.00 | 0.34 | 0.03 | 70 | 1012.3 |
| 20260507113045 | 52 | 102 | 1.7 | 3.5 | 0.00 | 0.34 | 0.03 | 69 | 1012.2 |
| 20260507112547 | 52 | 48 | 0.9 | 3.5 | 0.00 | 0.34 | 0.03 | 71 | 1012.2 |
| 20260507112043 | 53 | 115 | 0.9 | 5.2 | 0.00 | 0.34 | 0.03 | 72 | 1012.0 |
| 20260507111542 | 53 | 143 | 1.7 | 5.2 | 0.00 | 0.34 | 0.03 | 73 | 1011.9 |
| 20260507111041 | 53 | 160 | 1.7 | 4.3 | 0.00 | 0.34 | 0.03 | 75 | 1011.9 |
| 20260507110540 | 53 | 91 | 0.9 | 3.5 | 0.00 | 0.34 | 0.03 | 77 | 1011.9 |
| 20260507110041 | 52 | 94 | 0.0 | 2.6 | 0.00 | 0.35 | 0.03 | 78 | 1011.8 |
| 20260507105538 | 52 | 93 | 0.9 | 2.6 | 0.00 | 0.35 | 0.03 | 78 | 1012.0 |
| 20260507105038 | 52 | 59 | 0.0 | 1.7 | 0.00 | 0.35 | 0.03 | 84 | 1011.9 |
| 20260507104538 | 52 | 59 | 0.0 | 1.7 | 0.00 | 0.35 | 0.03 | 83 | 1011.8 |
| 20260507104041 | 52 | 71 | 0.0 | 0.9 | 0.00 | 0.35 | 0.03 | 83 | 1011.6 |
| 20260507103537 | 52 | 71 | 0.0 | 0.9 | 0.00 | 0.35 | 0.03 | 82 | 1011.6 |
| 20260507103037 | 52 | 71 | 0.0 | 0.9 | 0.00 | 0.35 | 0.03 | 83 | 1011.7 |
| 20260507102537 | 52 | 71 | 0.0 | 0.9 | 0.00 | 0.35 | 0.03 | 82 | 1011.7 |
| 20260507102036 | 53 | 71 | 0.0 | 0.9 | 0.00 | 0.35 | 0.03 | 82 | 1011.6 |
| 20260507101541 | 53 | 71 | 0.0 | 0.9 | 0.00 | 0.35 | 0.03 | 83 | 1011.6 |
| 20260507101034 | 53 | 71 | 0.0 | 1.7 | 0.00 | 0.35 | 0.03 | 81 | 1011.5 |
| 20260507100534 | 53 | 71 | 0.0 | 5.2 | 0.00 | 0.35 | 0.03 | 82 | 1011.5 |
| 20260507100047 | 53 | 74 | 0.0 | 5.2 | 0.00 | 0.35 | 0.03 | 78 | 1011.5 |
| 20260507095533 | 53 | 99 | 0.9 | 3.5 | 0.00 | 0.35 | 0.03 | 78 | 1011.2 |
| 20260507095034 | 53 | 99 | 0.9 | 5.2 | 0.00 | 0.35 | 0.03 | 78 | 1011.3 |
| 20260507094533 | 53 | 70 | 0.9 | 6.1 | 0.00 | 0.35 | 0.03 | 79 | 1011.3 |
| 20260507094032 | 53 | 93 | 0.0 | 5.2 | 0.00 | 0.35 | 0.03 | 78 | 1011.3 |
| 20260507093531 | 53 | 94 | 0.9 | 3.5 | 0.00 | 0.35 | 0.03 | 78 | 1011.2 |
| 20260507093032 | 53 | 107 | 0.0 | 2.6 | 0.00 | 0.35 | 0.03 | 78 | 1011.2 |
| 20260507092533 | 53 | 79 | 0.0 | 0.9 | 0.00 | 0.35 | 0.03 | 80 | 1011.2 |
| 20260507092030 | 53 | 78 | 0.0 | 0.9 | 0.00 | 0.35 | 0.03 | 80 | 1011.2 |
| 20260507091530 | 53 | 58 | 0.0 | 1.7 | 0.00 | 0.35 | 0.03 | 81 | 1011.1 |
| 20260507091030 | 53 | 67 | 0.0 | 2.6 | 0.00 | 0.35 | 0.03 | 81 | 1011.0 |
| 20260507090530 | 53 | 89 | 0.0 | 2.6 | 0.00 | 0.35 | 0.03 | 79 | 1010.9 |
| 20260507090032 | 53 | 91 | 0.0 | 2.6 | 0.00 | 0.35 | 0.03 | 79 | 1010.7 |
| 20260507085529 | 53 | 101 | 0.0 | 3.5 | 0.00 | 0.35 | 0.03 | 79 | 1010.9 |
| 20260507085029 | 53 | 82 | 0.0 | 3.5 | 0.00 | 0.35 | 0.03 | 80 | 1010.9 |
| 20260507084529 | 53 | 93 | 0.9 | 3.5 | 0.00 | 0.35 | 0.03 | 79 | 1010.9 |
| 20260507084030 | 53 | 91 | 0.9 | 3.5 | 0.00 | 0.35 | 0.03 | 79 | 1011.0 |
| 20260507083528 | 53 | 102 | 0.0 | 1.7 | 0.00 | 0.35 | 0.03 | 80 | 1011.0 |
| 20260507083030 | 53 | 89 | 0.0 | 0.9 | 0.00 | 0.35 | 0.03 | 81 | 1011.2 |
| 20260507082531 | 53 | 91 | 0.0 | 0.0 | 0.00 | 0.35 | 0.03 | 79 | 1011.0 |
| 20260507082026 | 53 | 91 | 0.0 | 0.9 | 0.00 | 0.35 | 0.03 | 79 | 1011.0 |
| 20260507081527 | 53 | 115 | 0.0 | 2.6 | 0.00 | 0.35 | 0.03 | 79 | 1010.9 |
| 20260507081029 | 53 | 96 | 0.9 | 2.6 | 0.00 | 0.35 | 0.03 | 78 | 1010.9 |
| 20260507080527 | 53 | 67 | 0.0 | 0.0 | 0.00 | 0.35 | 0.03 | 82 | 1010.7 |
| 20260507080026 | 53 | 46 | 0.0 | 2.6 | 0.00 | 0.35 | 0.03 | 81 | 1010.8 |
| 20260507075528 | 53 | 44 | 0.9 | 3.5 | 0.00 | 0.35 | 0.03 | 79 | 1010.8 |
| 20260507075026 | 53 | 91 | 0.0 | 3.5 | 0.00 | 0.35 | 0.03 | 80 | 1010.7 |
| 20260507074525 | 53 | 73 | 0.0 | 3.5 | 0.00 | 0.35 | 0.03 | 79 | 1010.6 |
| 20260507074024 | 53 | 120 | 0.9 | 3.5 | 0.00 | 0.35 | 0.03 | 81 | 1010.4 |
| 20260507073526 | 53 | 69 | 0.9 | 5.2 | 0.00 | 0.35 | 0.03 | 80 | 1010.2 |
| 20260507073025 | 53 | 65 | 0.9 | 6.1 | 0.00 | 0.35 | 0.03 | 80 | 1010.3 |
| 20260507072524 | 53 | 58 | 0.9 | 6.1 | 0.00 | 0.35 | 0.03 | 82 | 1010.4 |
| 20260507072023 | 53 | 53 | 0.9 | 5.2 | 0.00 | 0.35 | 0.03 | 82 | 1010.4 |
| 20260507071523 | 53 | 90 | 0.9 | 4.3 | 0.00 | 0.35 | 0.03 | 83 | 1010.2 |
| 20260507071023 | 53 | 89 | 1.7 | 4.3 | 0.01 | 0.35 | 0.03 | 82 | 1010.3 |
| 20260507070527 | 53 | 117 | 0.9 | 7.0 | 0.01 | 0.35 | 0.03 | 82 | 1010.3 |
| 20260507070032 | 53 | 73 | 0.9 | 7.0 | 0.02 | 0.35 | 0.03 | 82 | 1010.5 |
| 20260507065522 | 53 | 108 | 0.0 | 12.2 | 0.02 | 0.35 | 0.03 | 82 | 1010.4 |
| 20260507065021 | 53 | 200 | 0.9 | 7.0 | 0.02 | 0.35 | 0.03 | 83 | 1010.5 |
| 20260507064533 | 53 | 208 | 0.9 | 5.2 | 0.02 | 0.35 | 0.03 | 85 | 1010.4 |
| 20260507064020 | 53 | 79 | 0.0 | 2.6 | 0.02 | 0.35 | 0.03 | 86 | 1010.4 |
| 20260507063521 | 53 | 82 | 0.0 | 2.6 | 0.02 | 0.35 | 0.03 | 86 | 1010.3 |
| 20260507063027 | 53 | 98 | 0.0 | 2.6 | 0.02 | 0.35 | 0.03 | 85 | 1010.5 |
| 20260507062519 | 53 | 86 | 0.0 | 3.5 | 0.02 | 0.35 | 0.03 | 85 | 1010.4 |
| 20260507062018 | 53 | 91 | 0.9 | 3.5 | 0.02 | 0.35 | 0.03 | 84 | 1010.6 |
| 20260507061517 | 54 | 84 | 0.0 | 6.1 | 0.02 | 0.35 | 0.03 | 84 | 1010.6 |
| 20260507061020 | 54 | 143 | 0.9 | 7.0 | 0.01 | 0.34 | 0.02 | 83 | 1010.7 |
| 20260507060520 | 54 | 108 | 1.7 | 5.2 | 0.00 | 0.33 | 0.01 | 83 | 1011.0 |
| 20260507060019 | 55 | 122 | 0.9 | 3.5 | 0.01 | 0.33 | 0.01 | 85 | 1010.8 |
| 20260507055513 | 55 | 65 | 0.0 | 1.7 | 0.01 | 0.33 | 0.01 | 86 | 1010.7 |
| 20260507055014 | 55 | 88 | 0.0 | 1.7 | 0.01 | 0.33 | 0.01 | 85 | 1010.5 |
| 20260507054512 | 55 | 82 | 0.0 | 2.6 | 0.01 | 0.33 | 0.01 | 84 | 1010.4 |
| 20260507054011 | 55 | 130 | 0.0 | 2.6 | 0.01 | 0.33 | 0.01 | 84 | 1010.6 |
| 20260507053511 | 55 | 91 | 0.9 | 2.6 | 0.01 | 0.33 | 0.01 | 85 | 1010.7 |
| 20260507053010 | 55 | 119 | 0.0 | 2.6 | 0.01 | 0.33 | 0.01 | 85 | 1010.6 |
| 20260507052511 | 55 | 124 | 0.0 | 5.2 | 0.01 | 0.33 | 0.01 | 83 | 1010.6 |
| 20260507052010 | 55 | 89 | 1.7 | 5.2 | 0.01 | 0.33 | 0.01 | 83 | 1010.5 |
| 20260507051509 | 56 | 129 | 0.9 | 7.0 | 0.01 | 0.33 | 0.01 | 83 | 1010.6 |
| 20260507051008 | 56 | 106 | 3.5 | 7.0 | 0.01 | 0.33 | 0.01 | 82 | 1010.4 |
| 20260507050506 | 56 | 109 | 0.9 | 5.2 | 0.01 | 0.33 | 0.01 | 82 | 1010.7 |
| 20260507050007 | 56 | 127 | 0.9 | 5.2 | 0.00 | 0.32 | 0.00 | 81 | 1010.6 |
| 20260507045505 | 57 | 96 | 0.9 | 5.2 | 0.00 | 0.32 | 0.00 | 81 | 1010.7 |
| 20260507045005 | 57 | 169 | 0.9 | 4.3 | 0.00 | 0.32 | 0.00 | 81 | 1010.2 |
| 20260507044504 | 57 | 65 | 0.9 | 5.2 | 0.00 | 0.32 | 0.00 | 81 | 1010.1 |
| 20260507044003 | 57 | 125 | 0.9 | 4.3 | 0.00 | 0.32 | 0.00 | 80 | 1009.6 |
| 20260507043503 | 57 | 195 | 2.6 | 6.1 | 0.00 | 0.32 | 0.00 | 81 | 1009.9 |
| 20260507043003 | 57 | 105 | 2.6 | 6.1 | 0.00 | 0.32 | 0.00 | 81 | 1010.2 |
| 20260507042503 | 57 | 80 | 0.9 | 4.3 | 0.00 | 0.32 | 0.00 | 83 | 1010.4 |
| 20260507042001 | 57 | 87 | 0.0 | 4.3 | 0.00 | 0.32 | 0.00 | 83 | 1010.2 |
| 20260507041503 | 57 | 70 | 0.0 | 2.6 | 0.00 | 0.32 | 0.00 | 83 | 1010.3 |
| 20260507041100 | 57 | 102 | 0.0 | 5.2 | 0.00 | 0.32 | 0.00 | 81 | 1009.9 |
| 20260507040602 | 57 | 266 | 2.6 | 5.2 | 0.00 | 0.32 | 0.00 | 81 | 1009.6 |
| 20260507040059 | 57 | 59 | 0.0 | 6.1 | 0.00 | 0.32 | 0.32 | 82 | 1010.3 |
| 20260507035558 | 57 | 70 | 0.9 | 7.8 | 0.00 | 0.32 | 0.32 | 82 | 1010.4 |
| 20260507035058 | 57 | 106 | 0.9 | 7.8 | 0.00 | 0.32 | 0.32 | 83 | 1010.4 |
| 20260507034558 | 57 | 62 | 0.9 | 4.3 | 0.00 | 0.32 | 0.32 | 84 | 1010.4 |
| 20260507034056 | 57 | 84 | 0.9 | 4.3 | 0.00 | 0.32 | 0.32 | 85 | 1010.4 |
| 20260507033556 | 57 | 67 | 0.0 | 3.5 | 0.00 | 0.32 | 0.32 | 88 | 1010.1 |
| 20260507033057 | 57 | 86 | 0.0 | 1.7 | 0.00 | 0.32 | 0.32 | 86 | 1009.8 |
| 20260507032555 | 57 | 88 | 0.0 | 2.6 | 0.00 | 0.32 | 0.32 | 86 | 1009.6 |
| 20260507032055 | 57 | 89 | 0.9 | 3.5 | 0.03 | 0.32 | 0.32 | 84 | 1009.6 |
| 20260507031553 | 58 | 87 | 0.9 | 6.1 | 0.03 | 0.32 | 0.32 | 82 | 1009.7 |
| 20260507031056 | 58 | 75 | 0.9 | 6.1 | 0.03 | 0.32 | 0.32 | 83 | 1009.8 |
| 20260507030552 | 58 | 69 | 0.9 | 3.5 | 0.03 | 0.32 | 0.32 | 84 | 1009.9 |
| 20260507030054 | 58 | 105 | 0.0 | 2.6 | 0.03 | 0.32 | 0.32 | 86 | 1009.7 |
| 20260507025558 | 58 | 77 | 0.9 | 2.6 | 0.03 | 0.32 | 0.32 | 86 | 1009.9 |
| 20260507025055 | 58 | 56 | 0.9 | 4.3 | 0.03 | 0.32 | 0.32 | 88 | 1010.1 |
| 20260507024602 | 58 | 94 | 0.9 | 4.3 | 0.03 | 0.32 | 0.32 | 87 | 1009.9 |
| 20260507024049 | 58 | 88 | 0.0 | 1.7 | 0.03 | 0.32 | 0.32 | 88 | 1009.6 |
| 20260507023554 | 59 | 115 | 0.0 | 1.7 | 0.03 | 0.32 | 0.32 | 85 | 1009.6 |
| 20260507023046 | 59 | 170 | 0.9 | 2.6 | 0.03 | 0.32 | 0.32 | 83 | 1009.3 |
| 20260507022554 | 60 | 141 | 0.0 | 5.2 | 0.02 | 0.31 | 0.31 | 82 | 1009.3 |
| 20260507022046 | 60 | 111 | 1.7 | 5.2 | 0.00 | 0.28 | 0.28 | 79 | 1009.2 |
| 20260507021546 | 61 | 135 | 1.7 | 7.8 | 0.00 | 0.28 | 0.28 | 79 | 1009.2 |
| 20260507021046 | 61 | 75 | 2.6 | 7.8 | 0.00 | 0.28 | 0.28 | 80 | 1009.1 |
| 20260507020546 | 61 | 124 | 3.5 | 7.8 | 0.00 | 0.28 | 0.28 | 79 | 1009.4 |
| 20260507020103 | 61 | 150 | 1.7 | 5.2 | 0.00 | 0.28 | 0.28 | 80 | 1009.6 |
| 20260507015543 | 61 | 161 | 2.6 | 5.2 | 0.00 | 0.28 | 0.28 | 80 | 1009.3 |
| 20260507015044 | 61 | 141 | 1.7 | 5.2 | 0.00 | 0.28 | 0.28 | 81 | 1009.2 |
| 20260507014553 | 61 | 134 | 0.9 | 4.3 | 0.00 | 0.28 | 0.28 | 82 | 1009.0 |
| 20260507014044 | 61 | 151 | 0.9 | 3.5 | 0.00 | 0.28 | 0.28 | 83 | 1008.9 |
| 20260507013543 | 61 | 142 | 0.0 | 4.3 | 0.00 | 0.28 | 0.28 | 83 | 1009.0 |
| 20260507013048 | 62 | 130 | 0.9 | 4.3 | 0.00 | 0.28 | 0.28 | 82 | 1009.1 |
| 20260507012543 | 62 | 74 | 0.9 | 4.3 | 0.00 | 0.28 | 0.28 | 84 | 1009.1 |
| 20260507012044 | 62 | 96 | 0.0 | 1.7 | 0.00 | 0.28 | 0.28 | 86 | 1008.9 |
| 20260507011543 | 62 | 96 | 0.0 | 4.3 | 0.00 | 0.28 | 0.28 | 86 | 1009.0 |
| 20260507011042 | 62 | 111 | 0.0 | 4.3 | 0.00 | 0.28 | 0.28 | 84 | 1008.9 |
| 20260507010542 | 62 | 74 | 0.0 | 2.6 | 0.00 | 0.28 | 0.28 | 85 | 1009.2 |
| 20260507010043 | 62 | 110 | 0.0 | 4.3 | 0.00 | 0.28 | 0.28 | 83 | 1009.0 |
| 20260507005542 | 62 | 146 | 0.9 | 6.1 | 0.00 | 0.28 | 0.28 | 83 | 1009.1 |
| 20260507005042 | 62 | 84 | 1.7 | 6.1 | 0.00 | 0.28 | 0.28 | 86 | 1009.2 |
| 20260507004544 | 62 | 105 | 2.6 | 6.1 | 0.00 | 0.28 | 0.28 | 84 | 1009.1 |
| 20260507004041 | 62 | 91 | 0.9 | 7.0 | 0.00 | 0.28 | 0.28 | 86 | 1008.9 |
| 20260507003540 | 63 | 94 | 0.0 | 7.0 | 0.01 | 0.28 | 0.28 | 87 | 1009.0 |
| 20260507003042 | 63 | 78 | 0.0 | 1.7 | 0.01 | 0.28 | 0.28 | 88 | 1008.9 |
| 20260507002540 | 63 | 67 | 0.0 | 0.9 | 0.01 | 0.28 | 0.28 | 88 | 1008.9 |
| 20260507002040 | 63 | 80 | 0.0 | 3.5 | 0.01 | 0.28 | 0.28 | 89 | 1008.8 |
| 20260507001544 | 63 | 112 | 0.9 | 3.5 | 0.01 | 0.28 | 0.28 | 87 | 1008.7 |
| 20260507001040 | 64 | 94 | 0.0 | 2.6 | 0.01 | 0.28 | 0.28 | 88 | 1008.7 |
| 20260507000544 | 64 | 95 | 0.0 | 2.6 | 0.01 | 0.28 | 0.28 | 88 | 1008.6 |
| 20260507000040 | 64 | 69 | 0.0 | 1.7 | 0.02 | 0.28 | 0.28 | 90 | 1008.8 |
| 20260506235538 | 64 | 88 | 0.0 | 1.7 | 0.02 | 0.28 | 0.28 | 90 | 1008.7 |
| 20260506235042 | 64 | 75 | 0.0 | 1.7 | 0.03 | 0.28 | 0.28 | 90 | 1008.6 |
| 20260506234540 | 65 | 64 | 0.9 | 4.3 | 0.03 | 0.28 | 0.28 | 89 | 1008.5 |
| 20260506234038 | 65 | 96 | 0.0 | 1.7 | 0.02 | 0.28 | 0.28 | 90 | 1008.2 |
| 20260506233538 | 65 | 79 | 0.0 | 1.7 | 0.02 | 0.28 | 0.28 | 89 | 1008.2 |
| 20260506233039 | 65 | 120 | 0.9 | 2.6 | 0.02 | 0.28 | 0.28 | 89 | 1008.1 |
| 20260506232537 | 65 | 58 | 0.0 | 4.3 | 0.02 | 0.28 | 0.28 | 88 | 1008.0 |
| 20260506232038 | 65 | 53 | 0.9 | 4.3 | 0.02 | 0.28 | 0.28 | 89 | 1007.8 |
| 20260506231548 | 65 | 53 | 0.0 | 1.7 | 0.02 | 0.28 | 0.28 | 89 | 1007.7 |
| 20260506231039 | 66 | 54 | 0.0 | 1.7 | 0.02 | 0.28 | 0.28 | 88 | 1007.6 |
| 20260506230537 | 66 | 54 | 0.0 | 2.6 | 0.02 | 0.28 | 0.28 | 86 | 1007.7 |
| 20260506230051 | 66 | 35 | 0.9 | 2.6 | 0.01 | 0.27 | 0.27 | 85 | 1007.8 |
| 20260506225537 | 67 | 86 | 0.0 | 1.7 | 0.01 | 0.27 | 0.27 | 83 | 1007.8 |
| 20260506225037 | 67 | 88 | 0.0 | 1.7 | 0.00 | 0.26 | 0.26 | 81 | 1007.5 |
| 20260506224538 | 67 | 88 | 0.9 | 1.7 | 0.00 | 0.26 | 0.26 | 80 | 1007.5 |
| 20260506224039 | 68 | 46 | 0.0 | 2.6 | 0.00 | 0.26 | 0.26 | 80 | 1007.3 |
| 20260506223536 | 68 | 51 | 0.9 | 5.2 | 0.00 | 0.26 | 0.26 | 79 | 1007.2 |
| 20260506223049 | 68 | 77 | 1.7 | 5.2 | 0.00 | 0.26 | 0.26 | 79 | 1007.3 |
| 20260506222536 | 68 | 60 | 1.7 | 7.0 | 0.00 | 0.26 | 0.26 | 79 | 1007.3 |
| 20260506222036 | 68 | 80 | 2.6 | 7.0 | 0.00 | 0.26 | 0.26 | 78 | 1007.1 |
| 20260506221536 | 68 | 11 | 2.6 | 7.0 | 0.00 | 0.26 | 0.26 | 78 | 1007.1 |
| 20260506221036 | 69 | 14 | 1.7 | 4.3 | 0.00 | 0.26 | 0.26 | 78 | 1007.1 |
| 20260506220539 | 69 | 41 | 1.7 | 6.1 | 0.00 | 0.26 | 0.26 | 78 | 1007.1 |
| 20260506220037 | 69 | 6 | 3.5 | 7.0 | 0.00 | 0.26 | 0.26 | 78 | 1007.1 |
| 20260506215539 | 69 | 5 | 2.6 | 7.0 | 0.00 | 0.26 | 0.26 | 77 | 1007.0 |
| 20260506215034 | 69 | 23 | 1.7 | 5.2 | 0.00 | 0.26 | 0.26 | 78 | 1007.1 |
| 20260506214534 | 69 | 67 | 1.7 | 5.2 | 0.00 | 0.26 | 0.26 | 77 | 1007.1 |
| 20260506214034 | 69 | 68 | 0.9 | 6.1 | 0.00 | 0.26 | 0.26 | 77 | 1007.0 |
| 20260506213534 | 69 | 355 | 0.9 | 4.3 | 0.00 | 0.26 | 0.26 | 77 | 1006.9 |
| 20260506213042 | 69 | 41 | 1.7 | 4.3 | 0.00 | 0.26 | 0.26 | 77 | 1006.9 |
| 20260506212534 | 69 | 49 | 0.9 | 8.7 | 0.00 | 0.26 | 0.26 | 78 | 1007.0 |
| 20260506212038 | 69 | 275 | 3.5 | 8.7 | 0.00 | 0.26 | 0.26 | 77 | 1006.9 |
| 20260506211546 | 69 | 60 | 2.6 | 7.8 | 0.00 | 0.26 | 0.26 | 77 | 1007.0 |
| 20260506211034 | 69 | 67 | 2.6 | 6.1 | 0.00 | 0.26 | 0.26 | 78 | 1006.8 |
| 20260506210533 | 68 | 56 | 3.5 | 6.1 | 0.00 | 0.26 | 0.26 | 79 | 1006.9 |
| 20260506210035 | 68 | 1 | 3.5 | 6.1 | 0.00 | 0.26 | 0.26 | 78 | 1006.8 |
| 20260506205533 | 68 | 359 | 2.6 | 5.2 | 0.00 | 0.26 | 0.26 | 79 | 1006.8 |
| 20260506205032 | 68 | 63 | 1.7 | 10.4 | 0.00 | 0.26 | 0.26 | 78 | 1006.8 |
| 20260506204534 | 68 | 282 | 0.9 | 7.8 | 0.00 | 0.26 | 0.26 | 78 | 1006.8 |
| 20260506204031 | 68 | 243 | 2.6 | 7.8 | 0.00 | 0.26 | 0.26 | 77 | 1006.7 |
| 20260506203532 | 69 | 211 | 2.6 | 7.8 | 0.00 | 0.26 | 0.26 | 77 | 1006.7 |
| 20260506203032 | 69 | 148 | 3.5 | 8.7 | 0.00 | 0.26 | 0.26 | 77 | 1006.5 |
| 20260506202531 | 69 | 194 | 3.5 | 7.8 | 0.00 | 0.26 | 0.26 | 77 | 1006.6 |
| 20260506202030 | 69 | 145 | 3.5 | 8.7 | 0.00 | 0.26 | 0.26 | 77 | 1006.4 |